Time,TemperatureF,DewpointF,PressureIn,WindDirection,WindDirectionDegrees,WindSpeedMPH,WindSpeedGustMPH,Humidity,HourlyPrecipIn,Conditions,Clouds,dailyrainin,SoftwareType,DateUTC
2013-03-01 00:00:00,31.5,26.0,29.97,NNE,25,5.0,9.0,80,0.00,RA,,0.00,WeatherDisplay:10.37,2013-03-01 05:00:00,
2013-03-01 00:15:00,31.5,25.7,29.97,North,358,3.0,8.0,79,0.00,OVC,,0.00,WeatherDisplay:10.37,2013-03-01 05:15:00,
2013-03-01 00:30:00,31.5,25.7,29.97,NE,37,5.0,8.0,79,0.00,OVC,,0.00,WeatherDisplay:10.37,2013-03-01 05:30:00,
2013-03-01 00:45:00,31.1,25.3,29.97,NNE,19,5.0,10.0,79,0.00,OVC,,0.00,WeatherDisplay:10.37,2013-03-01 05:45:00,
2013-03-01 01:00:00,31.1,25.3,29.98,North,10,5.0,7.0,79,0.00,OVC,,0.00,WeatherDisplay:10.37,2013-03-01 06:00:00,
2013-03-01 01:15:00,31.1,25.3,29.98,NNE,16,5.0,9.0,79,0.00,OVC,,0.00,WeatherDisplay:10.37,2013-03-01 06:15:00,
2013-03-01 01:30:00,31.1,25.3,29.98,North,354,3.0,9.0,79,0.00,OVC,,0.00,WeatherDisplay:10.37,2013-03-01 06:30:00,
2013-03-01 01:45:00,31.1,25.3,29.98,North,10,3.0,5.0,79,0.00,OVC,,0.00,WeatherDisplay:10.37,2013-03-01 06:45:00,
2013-03-01 02:00:00,30.7,24.7,29.98,NNE,19,2.0,8.0,78,0.00,OVC,,0.00,WeatherDisplay:10.37,2013-03-01 07:00:00,
2013-03-01 02:15:00,30.7,24.7,29.98,NNE,22,3.0,8.0,78,0.00,OVC,,0.00,WeatherDisplay:10.37,2013-03-01 07:15:00,
2013-03-01 02:30:00,30.6,24.5,29.98,North,358,2.0,6.0,78,0.00,OVC,,0.00,WeatherDisplay:10.37,2013-03-01 07:30:00,
2013-03-01 02:45:00,30.6,24.5,29.98,North,2,3.0,6.0,78,0.00,OVC,,0.00,WeatherDisplay:10.37,2013-03-01 07:45:00,
2013-03-01 03:00:00,30.4,24.0,29.98,North,7,3.0,6.0,77,0.00,OVC,,0.00,WeatherDisplay:10.37,2013-03-01 08:00:00,
2013-03-01 03:15:00,30.4,24.0,29.98,NNE,18,3.0,6.0,77,0.00,OVC,,0.00,WeatherDisplay:10.37,2013-03-01 08:15:00,
2013-03-01 03:30:00,30.2,23.9,29.98,NNW,337,3.0,6.0,77,0.00,OVC,,0.00,WeatherDisplay:10.37,2013-03-01 08:30:00,
2013-03-01 03:45:00,30.4,24.0,29.98,North,11,3.0,7.0,77,0.00,OVC,,0.00,WeatherDisplay:10.37,2013-03-01 08:45:00,
2013-03-01 04:00:00,30.0,23.4,29.98,NNW,346,3.0,6.0,76,0.00,OVC,,0.00,WeatherDisplay:10.37,2013-03-01 09:00:00,
2013-03-01 04:15:00,30.0,23.7,29.96,North,1,2.0,5.0,77,0.00,OVC,,0.00,WeatherDisplay:10.37,2013-03-01 09:15:00,
2013-03-01 04:30:00,29.8,23.5,29.96,North,3,2.0,7.0,77,0.00,OVC,,0.00,WeatherDisplay:10.37,2013-03-01 09:30:00,
2013-03-01 04:45:00,29.9,23.2,29.99,North,9,3.0,7.0,76,0.00,OVC,,0.00,WeatherDisplay:10.37,2013-03-01 09:45:00,
2013-03-01 05:00:00,29.7,23.0,29.99,NNE,23,3.0,7.0,76,0.00,OVC,,0.00,WeatherDisplay:10.37,2013-03-01 10:00:00,
2013-03-01 05:15:00,29.7,22.7,29.99,NNE,32,3.0,6.0,75,0.00,OVC,,0.00,WeatherDisplay:10.37,2013-03-01 10:15:00,
2013-03-01 05:30:00,29.7,22.7,29.99,NNE,32,3.0,7.0,75,0.00,OVC,,0.00,WeatherDisplay:10.37,2013-03-01 10:30:00,
2013-03-01 06:00:00,29.3,22.4,30.01,North,7,5.0,9.0,75,0.00,OVC,,0.00,WeatherDisplay:10.37,2013-03-01 11:00:00,
2013-03-01 06:15:00,29.3,22.4,30.01,North,7,3.0,8.0,75,0.00,OVC,,0.00,WeatherDisplay:10.37,2013-03-01 11:15:00,
2013-03-01 06:30:00,28.9,22.0,30.01,NNE,27,2.0,5.0,75,0.00,OVC,,0.00,WeatherDisplay:10.37,2013-03-01 11:30:00,
2013-03-01 06:45:00,28.9,22.0,30.00,NNE,32,2.0,4.0,75,0.00,OVC,,0.00,WeatherDisplay:10.37,2013-03-01 11:45:00,
2013-03-01 07:00:00,28.9,22.0,30.01,NNE,22,2.0,6.0,75,0.00,OVC,,0.00,WeatherDisplay:10.37,2013-03-01 12:00:00,
2013-03-01 07:15:00,27.9,21.3,30.03,NNE,25,2.0,5.0,76,0.00,OVC,,0.00,WeatherDisplay:10.37,2013-03-01 12:15:00,
2013-03-01 07:30:00,27.5,21.2,30.03,NE,35,1.0,2.0,77,0.00,CLR,,0.00,WeatherDisplay:10.37,2013-03-01 12:30:00,
2013-03-01 07:45:00,27.5,21.2,30.03,NNE,22,2.0,6.0,77,0.00,CLR,,0.00,WeatherDisplay:10.37,2013-03-01 12:45:00,
2013-03-01 08:00:00,27.0,20.7,30.04,NNW,338,3.0,7.0,77,0.00,CLR,,0.00,WeatherDisplay:10.37,2013-03-01 13:00:00,
2013-03-01 08:15:00,27.0,20.7,30.04,NNE,32,6.0,8.0,77,0.00,CLR,,0.00,WeatherDisplay:10.37,2013-03-01 13:15:00,
2013-03-01 08:30:00,27.1,20.6,30.05,NNE,24,3.0,6.0,76,0.00,CLR,,0.00,WeatherDisplay:10.37,2013-03-01 13:30:00,
2013-03-01 08:45:00,27.0,20.1,30.05,NE,48,5.0,7.0,75,0.00,CLR,,0.00,WeatherDisplay:10.37,2013-03-01 13:45:00,
2013-03-01 09:00:00,27.1,20.6,30.06,NE,50,3.0,5.0,76,0.00,CLR,,0.00,WeatherDisplay:10.37,2013-03-01 14:00:00,
2013-03-01 09:15:00,27.3,20.4,30.06,East,81,3.0,7.0,75,0.00,CLR,,0.00,WeatherDisplay:10.37,2013-03-01 14:15:00,
2013-03-01 09:45:00,28.2,21.0,30.06,ENE,69,6.0,7.0,74,0.00,CLR,,0.00,WeatherDisplay:10.37,2013-03-01 14:45:00,
2013-03-01 10:15:00,28.4,20.5,30.06,NE,47,6.0,10.0,72,0.00,CLR,,0.00,WeatherDisplay:10.37,2013-03-01 15:15:00,
2013-03-01 10:30:00,28.4,20.5,30.07,NNE,25,5.0,9.0,72,0.00,CLR,,0.00,WeatherDisplay:10.37,2013-03-01 15:30:00,
2013-03-01 10:45:00,27.9,20.3,30.08,NE,34,5.0,7.0,73,0.00,CLR,,0.00,WeatherDisplay:10.37,2013-03-01 15:45:00,
2013-03-01 11:00:00,27.7,20.2,30.08,NNE,22,6.0,8.0,73,0.00,CLR,,0.00,WeatherDisplay:10.37,2013-03-01 16:00:00,
2013-03-01 11:15:00,27.0,19.5,30.08,NNE,22,6.0,8.0,73,0.00,CLR,,0.00,WeatherDisplay:10.37,2013-03-01 16:15:00,
2013-03-01 11:30:00,26.8,19.3,30.08,NE,45,6.0,10.0,73,0.00,CLR,,0.00,WeatherDisplay:10.37,2013-03-01 16:30:00,
2013-03-01 11:45:00,27.5,20.0,30.08,NE,35,5.0,9.0,73,0.00,CLR,,0.00,WeatherDisplay:10.37,2013-03-01 16:45:00,
2013-03-01 12:00:00,27.5,20.3,30.08,NNE,25,5.0,6.0,74,0.00,CLR,,0.00,WeatherDisplay:10.37,2013-03-01 17:00:00,
2013-03-01 12:15:00,27.9,20.6,30.08,ENE,68,2.0,3.0,74,0.00,CLR,,0.00,WeatherDisplay:10.37,2013-03-01 17:15:00,
2013-03-01 12:30:00,28.0,20.5,30.08,North,0,5.0,6.0,73,0.00,CLR,,0.00,WeatherDisplay:10.37,2013-03-01 17:30:00,
2013-03-01 12:45:00,28.2,20.7,30.09,NW,322,3.0,6.0,73,0.00,CLR,,0.00,WeatherDisplay:10.37,2013-03-01 17:45:00,
2013-03-01 13:00:00,28.2,20.7,30.09,North,360,3.0,7.0,73,0.00,CLR,,0.00,WeatherDisplay:10.37,2013-03-01 18:00:00,
2013-03-01 13:15:00,28.2,20.3,30.09,NE,56,5.0,7.0,72,0.00,CLR,,0.00,WeatherDisplay:10.37,2013-03-01 18:15:00,
2013-03-01 13:30:00,28.4,20.5,30.08,North,10,3.0,5.0,72,0.00,CLR,,0.00,WeatherDisplay:10.37,2013-03-01 18:30:00,
2013-03-01 13:45:00,28.6,20.7,30.08,ESE,106,3.0,6.0,72,0.00,CLR,,0.00,WeatherDisplay:10.37,2013-03-01 18:45:00,
2013-03-01 14:00:00,28.9,21.0,30.07,NE,34,3.0,5.0,72,0.00,CLR,,0.00,WeatherDisplay:10.37,2013-03-01 19:00:00,
2013-03-01 14:15:00,29.1,21.2,30.07,NW,315,2.0,3.0,72,0.00,CLR,,0.00,WeatherDisplay:10.37,2013-03-01 19:15:00,
2013-03-01 14:30:00,29.3,21.1,30.06,East,88,3.0,3.0,71,0.00,CLR,,0.00,WeatherDisplay:10.37,2013-03-01 19:30:00,
2013-03-01 14:45:00,29.3,21.1,30.07,North,358,3.0,5.0,71,0.00,CLR,,0.00,WeatherDisplay:10.37,2013-03-01 19:45:00,
2013-03-01 15:00:00,29.3,21.1,30.06,North,352,3.0,6.0,71,0.00,CLR,,0.00,WeatherDisplay:10.37,2013-03-01 20:00:00,
2013-03-01 15:15:00,29.7,21.1,30.06,SSE,161,3.0,6.0,70,0.00,CLR,,0.00,WeatherDisplay:10.37,2013-03-01 20:15:00,
2013-03-01 15:30:00,28.9,20.0,30.06,North,351,3.0,4.0,69,0.00,CLR,,0.00,WeatherDisplay:10.37,2013-03-01 20:30:00,
2013-03-01 15:45:00,28.9,20.4,30.06,North,360,2.0,6.0,70,0.00,CLR,,0.00,WeatherDisplay:10.37,2013-03-01 20:45:00,
2013-03-01 16:00:00,30.0,21.4,30.06,NE,56,2.0,5.0,70,0.00,CLR,,0.00,WeatherDisplay:10.37,2013-03-01 21:00:00,
2013-03-01 16:15:00,30.4,21.1,30.06,West,268,3.0,4.0,68,0.00,CLR,,0.00,WeatherDisplay:10.37,2013-03-01 21:15:00,
2013-03-01 16:30:00,30.4,20.7,30.06,East,90,3.0,6.0,67,0.00,CLR,,0.00,WeatherDisplay:10.37,2013-03-01 21:30:00,
2013-03-01 16:45:00,30.4,21.1,30.06,ENE,58,2.0,4.0,68,0.00,CLR,,0.00,WeatherDisplay:10.37,2013-03-01 21:45:00,
2013-03-01 17:00:00,30.6,20.5,30.06,ENE,57,3.0,6.0,66,0.00,CLR,,0.00,WeatherDisplay:10.37,2013-03-01 22:00:00,
2013-03-01 17:15:00,30.7,20.7,30.06,NNE,22,3.0,4.0,66,0.00,CLR,,0.00,WeatherDisplay:10.37,2013-03-01 22:15:00,
2013-03-01 17:30:00,30.4,20.4,30.06,ENE,65,3.0,4.0,66,0.00,CLR,,0.00,WeatherDisplay:10.37,2013-03-01 22:30:00,
2013-03-01 17:45:00,30.2,20.6,30.06,NE,45,3.0,6.0,67,0.00,CLR,,0.00,WeatherDisplay:10.37,2013-03-01 22:45:00,
2013-03-01 18:00:00,30.0,20.0,30.07,North,359,3.0,5.0,66,0.00,CLR,,0.00,WeatherDisplay:10.37,2013-03-01 23:00:00,
2013-03-01 18:15:00,29.7,20.0,30.07,NE,35,2.0,3.0,67,0.00,CLR,,0.00,WeatherDisplay:10.37,2013-03-01 23:15:00,
2013-03-01 18:30:00,29.7,20.0,30.07,NE,45,3.0,4.0,67,0.00,CLR,,0.00,WeatherDisplay:10.37,2013-03-01 23:30:00,
2013-03-01 18:45:00,29.1,19.5,30.08,North,7,1.0,1.0,67,0.00,CLR,,0.00,WeatherDisplay:10.37,2013-03-01 23:45:00,
2013-03-01 19:00:00,28.9,19.7,30.08,NNW,341,0.0,0.0,68,0.00,CLR,,0.00,WeatherDisplay:10.37,2013-03-02 00:00:00,
2013-03-01 19:15:00,28.2,19.0,30.08,West,281,0.0,0.0,68,0.00,CLR,,0.00,WeatherDisplay:10.37,2013-03-02 00:15:00,
2013-03-01 19:30:00,27.7,19.2,30.07,WSW,248,0.0,0.0,70,0.00,CLR,,0.00,WeatherDisplay:10.37,2013-03-02 00:30:00,
2013-03-01 19:45:00,27.1,18.6,30.08,SW,236,0.0,0.0,70,0.00,CLR,,0.00,WeatherDisplay:10.37,2013-03-02 00:45:00,
2013-03-01 20:00:00,26.6,18.5,30.08,SE,135,0.0,0.0,71,0.00,CLR,,0.00,WeatherDisplay:10.37,2013-03-02 01:00:00,
2013-03-01 20:15:00,26.1,18.3,30.08,NNW,338,0.0,0.0,72,0.00,CLR,,0.00,WeatherDisplay:10.37,2013-03-02 01:15:00,
2013-03-01 20:30:00,25.7,18.2,30.09,North,11,0.0,1.0,73,0.00,CLR,,0.00,WeatherDisplay:10.37,2013-03-02 01:30:00,
2013-03-01 20:45:00,25.3,18.2,30.10,NE,48,0.0,1.0,74,0.00,CLR,,0.00,WeatherDisplay:10.37,2013-03-02 01:45:00,
2013-03-01 21:00:00,25.0,17.9,30.10,NNE,22,2.0,3.0,74,0.00,OVC,,0.00,WeatherDisplay:10.37,2013-03-02 02:00:00,
2013-03-01 21:30:00,25.0,18.2,30.11,NE,40,5.0,11.0,75,0.00,SCT,,0.00,WeatherDisplay:10.37,2013-03-02 02:30:00,
2013-03-01 21:45:00,25.0,17.9,30.11,NNE,26,6.0,11.0,74,0.00,SCT,,0.00,WeatherDisplay:10.37,2013-03-02 02:45:00,
2013-03-01 22:00:00,24.6,17.5,30.11,NE,37,5.0,9.0,74,0.00,SCT,,0.00,WeatherDisplay:10.37,2013-03-02 03:00:00,
2013-03-01 22:15:00,24.6,17.5,30.11,NE,34,5.0,9.0,74,0.00,BKN,,0.00,WeatherDisplay:10.37,2013-03-02 03:15:00,
2013-03-01 22:30:00,24.1,17.3,30.11,NNE,28,3.0,8.0,75,0.00,BKN,,0.00,WeatherDisplay:10.37,2013-03-02 03:30:00,
2013-03-01 22:45:00,23.9,17.1,30.12,NNE,25,2.0,6.0,75,0.00,BKN,,0.00,WeatherDisplay:10.37,2013-03-02 03:45:00,
2013-03-01 23:00:00,23.5,16.8,30.11,NNE,32,2.0,5.0,75,0.00,BKN,,0.00,WeatherDisplay:10.37,2013-03-02 04:00:00,
2013-03-01 23:15:00,23.4,16.6,30.11,NE,44,1.0,3.0,75,0.00,OVC,,0.00,WeatherDisplay:10.37,2013-03-02 04:15:00,
2013-03-01 23:30:00,23.2,16.4,30.11,North,9,1.0,3.0,75,0.00,OVC,,0.00,WeatherDisplay:10.37,2013-03-02 04:30:00,
2013-03-01 23:45:00,23.2,16.7,30.11,NNE,28,1.0,2.0,76,0.00,OVC,,0.00,WeatherDisplay:10.37,2013-03-02 04:45:00,